Volver al catálogo

PANDORE

ActivoCienciaSSO
NORAD 63244·PAYLOAD·🇫🇷 France

Lanzado Mar 15, 2025 desde Vandenberg Space Force Base

Loading…

Próximos Pases (próximas 24 horas)

TLE

ActualizadoSource: Space-Track

Época: Sep 13, 2026, 16:34 UTC

1 63244U 25052AL  26256.69045255  .00001818  00000-0  16979-3 0  9993
2 63244  97.6761 146.2774 0003253 260.1530  99.9324 14.95383772 81833

Sigue PANDORE en tiempo real con AllMySat

Download on the App Store